Location: Delettes
(50.6178°N, 2.2123°E)
Time: 03:57:28
(UTC+00:00)

Cosmos 1674 Rocket - Pass Details

Date: 27 February 2020
Orbit: 602 x 631 km, 82.5° (Epoch: 29 March)

Event Time Altitude Azimuth Distance (km) Brightness Sun altitude
Rises 19:59:02 0° 349° (N) 2,935 7.4 -24.5°
Reaches altitude 10° 20:01:17 10° 350° (N) 2,021 6.5 -24.8°
Enters shadow 20:05:11 67° 350° (N) 686 3.7 -25.4°
